Stations météo

Publicité
Bergerac, France (7530): Température de l'air & dewpoint: 16.10.2017 02:00:00 - 22.10.2017 02:00:00 (CEST)Bergerac, France (7530): Température de l'air 5cm: 16.10.2017 02:00:00 - 22.10.2017 02:00:00 (CEST)Bergerac, France (7530): Température de l'air -20cm & Température de l'air -100cm: 16.10.2017 02:00:00 - 22.10.2017 02:00:00 (CEST)Bergerac, France (7530): Vitesse du vent & gusts: 16.10.2017 02:00:00 - 22.10.2017 02:00:00 (CEST)Bergerac, France (7530): Direction du vent: 16.10.2017 02:00:00 - 22.10.2017 02:00:00 (CEST)Bergerac, France (7530): reduced air pressure: 16.10.2017 02:00:00 - 22.10.2017 02:00:00 (CEST)Bergerac, France (7530): visibility: 16.10.2017 02:00:00 - 22.10.2017 02:00:00 (CEST)Bergerac, France (7530): Ensoleillement: 16.10.2017 02:00:00 - 22.10.2017 02:00:00 (CEST)Bergerac, France (7530): Quantités de précipitations: 16.10.2017 02:00:00 - 22.10.2017 02:00:00 (CEST)
Date & Time tt [°C] td [°C] tt 5cm [°C] tt -20cm [°C] tt -100cm [°C] ff [km/h] ff [knt] fx [km/h] fx [knt] dd ppp [hPa] vv [km] sd [min] rr [mm]
22.10.2017 02:00:00 11,5 9,1 9,3 16,0 17,0 8 5 17 9 SW 1025,6 39 0 0,0
22.10.2017 01:00:00 11,8 9,7 9,4 16,1 17,0 9 5 19 10 WSW 1025,7 10 0 0,0
22.10.2017 00:00:00 11,7 9,6 9,2 16,2 17,0 9 5 14 8 SSW 1025,5 10 0 0,0
21.10.2017 23:00:00 10,9 9,0 8,5 16,2 16,9 10 5 19 11 W 1025,6 43 0 0,0
21.10.2017 22:00:00 12,6 9,8 10,8 16,2 16,9 15 8 33 18 SW 1025,1 42 0 1,0
21.10.2017 21:00:00 14,1 10,9 13,1 16,3 17,0 13 7 21 12 SW 1024,8 34 0 0,0
21.10.2017 20:00:00 14,5 11,1 13,0 16,3 17,0 13 7 23 13 SSW 1024,1 34 0 0,0
21.10.2017 19:00:00 14,1 10,9 12,8 16,3 17,0 12 7 29 15 SSW 1023,3 35 17 0,0
21.10.2017 18:00:00 15,0 11,0 14,4 16,2 17,0 16 9 28 15 SW 1022,8 10 9 0,0
21.10.2017 17:00:00 15,2 11,4 15,0 16,2 17,0 12 7 21 11 SW 1022,8 38 0 0,0
21.10.2017 16:00:00 15,4 13,4 14,2 16,1 17,0 8 4 17 9 SW 1022,3 10 0 0,2
21.10.2017 15:00:00 14,0 12,7 12,9 16,1 17,0 5 3 60 32 SW 1022,5 9 0 3,0
21.10.2017 14:00:00 17,1 13,4 16,3 16,1 17,0 13 7 23 12 SSW 1021,8 10 0 0,0
21.10.2017 13:00:00 16,4 13,1 15,8 16,0 17,0 7 4 14 8 SW 1022,3 37 0 0,0
21.10.2017 12:00:00 15,9 12,8 14,7 16,0 17,0 5 3 14 8 - 1022,0 10 0 0,2
21.10.2017 11:00:00 15,4 13,6 14,8 16,0 17,0 15 8 24 13 W 1021,8 5 0 0,6
21.10.2017 10:00:00 16,2 14,0 14,5 16,0 17,0 5 3 18 10 - 1020,8 10 0 0,0
21.10.2017 09:00:00 15,3 13,3 14,3 16,1 17,0 9 5 19 10 WSW 1020,1 10 0 0,0
21.10.2017 08:00:00 15,0 13,5 14,3 16,1 17,0 8 4 18 10 SW 1019,1 10 0 0,0
21.10.2017 07:00:00 15,1 14,0 13,2 16,2 17,0 3 2 17 9 ENE 1017,9 13 0 0,0
21.10.2017 06:00:00 14,7 13,7 11,8 16,3 17,0 4 2 11 6 SSE 1017,1 14 0 0,0
21.10.2017 05:00:00 13,9 13,3 9,8 16,4 17,0 4 2 14 8 - 1016,9 10 0 0,0
21.10.2017 04:00:00 12,5 11,9 8,6 16,5 17,0 6 3 9 5 NE 1017,2 19 0 0,0
21.10.2017 03:00:00 11,4 11,1 8,6 16,6 17,0 5 3 10 5 NE 1017,4 10 0 0,0
21.10.2017 02:00:00 10,9 10,4 - - - 5 3 11 6 ENE 1017,4 8 - -
21.10.2017 01:00:00 11,4 10,8 9,7 16,8 17,0 9 5 11 6 ENE 1017,7 8 0 0,0
21.10.2017 00:00:00 11,8 11,2 9,4 16,9 17,0 8 4 9 5 ENE 1017,8 4,8 0 0,0
20.10.2017 23:00:00 12,0 10,9 9,4 16,9 17,0 8 4 11 6 ENE 1017,8 7 0 0,0
20.10.2017 22:00:00 13,3 12,2 9,0 16,9 17,0 5 3 7 4 ENE 1017,7 19 0 0,0
20.10.2017 21:00:00 14,7 12,6 9,5 16,9 17,0 5 3 10 5 SE 1017,7 20 0 0,0
20.10.2017 20:00:00 16,2 13,7 10,8 16,9 17,0 6 3 8 5 SSE 1017,6 14 0 0,0
20.10.2017 19:00:00 18,5 14,0 14,4 16,7 17,0 5 3 13 7 SE 1017,1 17 30 0,0
20.10.2017 18:00:00 20,2 14,6 20,8 16,6 17,0 10 5 18 10 SE 1017,2 59 31 0,0
20.10.2017 17:00:00 20,5 14,6 21,4 16,4 17,0 9 5 26 14 S 1017,4 52 23 0,0
20.10.2017 16:00:00 20,3 15,5 21,8 16,3 17,0 11 6 18 10 SE 1017,4 10 6 0,0
20.10.2017 15:00:00 19,7 15,1 22,5 16,2 17,0 8 4 19 11 SSE 1017,5 10 2 0,0
20.10.2017 14:00:00 19,6 15,0 22,6 16,1 17,0 5 3 14 8 S 1017,9 10 18 0,0
20.10.2017 13:00:00 18,1 14,6 19,1 16,1 17,1 6 4 13 7 SSE 1018,3 45 2 0,0
20.10.2017 12:00:00 16,6 14,2 15,9 16,0 17,0 8 4 17 9 ESE 1018,3 10 3 0,0
20.10.2017 11:00:00 15,0 13,9 14,7 16,0 17,0 4 2 7 4 E 1018,0 11 0 0,0
20.10.2017 10:00:00 14,2 13,1 13,5 16,1 17,0 4 2 9 5 ENE 1017,5 10 0 0,2
20.10.2017 09:00:00 14,0 12,7 12,6 16,1 17,0 7 4 12 7 SSE 1016,7 17 0 0,0
20.10.2017 08:00:00 13,1 12,2 11,9 16,1 17,0 2 1 12 6 E 1015,9 12 0 0,0
20.10.2017 07:00:00 12,5 12,0 11,8 16,2 17,0 8 4 10 5 ENE 1015,8 6 0 0,0
20.10.2017 06:00:00 12,2 11,7 11,3 16,3 17,0 7 4 13 7 E 1015,6 6 0 0,0
20.10.2017 05:00:00 11,5 11,0 9,1 16,4 17,0 8 4 10 5 E 1015,2 6 0 0,0
20.10.2017 04:00:00 11,0 10,2 8,6 16,5 17,0 6 3 10 5 E 1015,2 6 0 0,0
20.10.2017 03:00:00 11,8 11,0 8,5 16,6 17,0 5 3 11 6 SE 1014,6 9 0 0,0
20.10.2017 02:00:00 11,9 11,3 8,2 16,7 17,0 2 1 11 6 N 1014,3 16 0 0,0
20.10.2017 01:00:00 12,1 11,6 8,6 16,8 17,0 5 3 11 6 E 1013,7 10 0 0,0
20.10.2017 00:00:00 11,7 10,8 8,8 16,9 17,0 5 3 8 5 E 1013,5 6 0 0,0
19.10.2017 23:00:00 12,6 11,8 9,9 17,0 17,0 6 3 11 6 NNE 1013,4 18 0 0,0
19.10.2017 22:00:00 12,2 11,4 9,9 17,0 17,0 9 5 11 6 E 1013,0 10 0 0,0
19.10.2017 21:00:00 12,9 12,1 9,5 17,1 17,0 5 3 9 5 ENE 1012,3 15 0 0,0
19.10.2017 20:00:00 14,0 11,7 9,6 17,1 17,0 4 2 6 4 SE 1012,2 25 0 0,0
19.10.2017 19:00:00 16,5 12,5 12,7 17,0 17,0 4 2 8 5 ESE 1011,9 18 28 0,0
19.10.2017 18:00:00 18,3 12,7 19,7 17,0 17,0 6 4 14 8 SSE 1011,0 60 60 0,0
19.10.2017 17:00:00 18,3 13,2 18,8 16,9 17,0 8 5 18 10 SE 1011,2 38 29 0,0
19.10.2017 16:00:00 17,0 13,7 17,6 16,8 17,0 9 5 16 8 SE 1011,3 10 0 0,0
19.10.2017 15:00:00 17,6 13,3 18,4 16,8 17,0 2 1 11 6 - 1011,1 10 7 0,0
19.10.2017 14:00:00 16,6 14,2 17,3 16,8 17,0 4 2 13 7 - 1011,6 10 3 0,0
19.10.2017 13:00:00 15,0 13,5 15,3 16,8 17,0 5 3 14 8 S 1012,3 10 0 0,0
19.10.2017 12:00:00 14,3 13,2 15,2 16,8 17,0 8 4 14 8 S 1012,3 10 0 0,0
19.10.2017 11:00:00 13,9 12,8 14,2 16,9 17,0 5 3 10 6 SSE 1011,5 12 0 0,0
19.10.2017 10:00:00 13,5 12,7 13,1 16,9 17,0 4 2 14 7 - 1011,6 7 0 0,0
19.10.2017 09:00:00 13,2 12,4 10,1 17,0 17,0 9 5 15 8 WSW 1010,8 9 0 0,0
19.10.2017 08:00:00 13,3 12,4 10,3 17,0 17,0 4 2 8 5 - 1010,7 10 0 0,0
19.10.2017 07:00:00 14,4 13,3 - - - 5 3 11 6 SSW 1010,5 10 - 0,0
19.10.2017 06:00:00 14,9 13,8 14,6 17,1 17,0 5 3 13 7 S 1010,1 27 0 0,0
19.10.2017 05:00:00 15,1 13,8 14,8 17,1 17,0 5 3 14 7 SW 1009,8 10 0 0,0
19.10.2017 04:00:00 15,3 14,3 15,0 17,2 17,0 9 5 16 9 WSW 1009,8 14 0 0,0
19.10.2017 03:00:00 15,7 15,1 14,2 17,2 17,0 4 2 8 5 S 1009,5 14 0 0,0
19.10.2017 02:00:00 15,5 14,7 14,4 17,2 17,0 4 2 7 4 - 1009,3 10 0 0,0
19.10.2017 01:00:00 15,7 15,1 14,7 17,3 16,9 4 2 9 5 S 1009,1 9 0 0,0
19.10.2017 00:00:00 15,5 14,7 15,0 17,3 17,0 7 4 12 6 ENE 1009,0 20 0 0,0
18.10.2017 23:00:00 15,9 14,9 15,1 17,4 17,0 4 2 11 6 - 1009,2 10 0 3,2
18.10.2017 22:00:00 16,5 14,7 15,5 17,4 17,0 4 2 26 14 W 1009,4 5 0 12,5
18.10.2017 21:00:00 16,9 15,8 15,6 17,3 17,0 5 3 9 5 ENE 1008,8 5 0 0,4
18.10.2017 20:00:00 17,6 15,6 16,1 17,3 17,0 3 1 16 9 E 1008,6 21 0 0,0
18.10.2017 19:00:00 18,8 16,0 17,0 17,2 17,0 5 3 13 7 ENE 1007,4 17 0 0,4
18.10.2017 18:00:00 20,6 16,2 18,2 17,1 17,0 2 1 21 11 - 1007,8 10 0 0,2
18.10.2017 17:00:00 23,1 14,4 22,1 16,9 17,0 11 6 16 8 W 1008,5 10 0 0,0
18.10.2017 16:00:00 24,3 13,8 23,8 16,7 17,0 5 3 26 14 S 1008,4 10 18 0,0
18.10.2017 15:00:00 25,0 13,9 28,1 16,5 17,0 11 6 30 16 ESE 1008,7 10 57 0,0
18.10.2017 14:00:00 24,3 13,5 23,4 16,4 17,0 15 8 26 14 SE 1010,1 10 31 0,0
18.10.2017 13:00:00 22,0 13,6 22,7 16,3 17,0 11 6 23 12 SE 1010,9 10 19 0,0
18.10.2017 12:00:00 20,1 14,0 19,0 16,3 17,0 11 6 18 10 ENE 1011,8 10 38 0,0
18.10.2017 11:00:00 17,8 13,7 16,8 16,4 17,0 11 6 16 9 E 1012,6 36 11 0,0
18.10.2017 10:00:00 15,4 12,9 13,6 16,4 17,0 4 2 5 3 ENE 1013,3 10 0 0,0
18.10.2017 09:00:00 14,3 12,2 13,1 16,4 17,0 2 1 11 6 S 1013,2 15 0 0,0
18.10.2017 08:00:00 14,2 12,1 12,3 16,5 17,0 10 5 15 8 ENE 1013,1 16 0 0,0
18.10.2017 07:00:00 13,7 11,6 12,4 16,5 17,0 6 3 9 5 ENE 1013,7 16 0 0,0
18.10.2017 06:00:00 14,2 11,9 12,6 16,6 17,0 8 4 8 5 ENE 1013,9 10 0 0,0
18.10.2017 05:00:00 14,4 11,9 12,9 16,6 17,0 5 3 8 4 NE 1014,0 10 0 0,0
18.10.2017 04:00:00 14,3 12,0 12,3 16,8 17,0 8 5 11 6 E 1014,4 17 0 0,0
18.10.2017 03:00:00 13,8 11,5 11,0 16,8 17,0 7 4 13 7 ENE 1015,2 16 0 0,0
18.10.2017 02:00:00 14,3 11,4 12,0 16,9 17,0 9 5 16 9 E 1015,3 10 0 0,0
18.10.2017 01:00:00 12,9 11,1 8,8 17,0 17,0 9 5 13 7 E 1015,9 10 0 0,0
18.10.2017 00:00:00 15,0 11,2 9,2 17,0 17,0 5 3 12 7 E 1016,3 10 0 0,0
17.10.2017 23:00:00 15,8 11,4 9,6 17,1 17,0 5 3 14 8 ENE 1016,3 10 0 0,0
17.10.2017 22:00:00 17,8 11,4 14,5 17,1 17,0 8 4 16 9 E 1015,8 10 0 0,0
17.10.2017 21:00:00 18,6 11,4 13,3 17,1 17,0 9 5 16 9 E 1015,7 10 0 0,0
17.10.2017 20:00:00 19,1 11,6 15,0 17,0 17,0 9 5 16 9 E 1015,7 10 0 0,0
17.10.2017 19:00:00 22,6 12,5 20,4 16,9 17,0 11 6 27 15 ESE 1015,4 10 29 0,0
17.10.2017 18:00:00 24,6 12,9 25,7 16,8 17,0 15 8 29 16 SSE 1015,4 - 56 0,0
17.10.2017 17:00:00 24,9 13,1 26,6 16,5 17,0 13 7 31 17 SE 1015,8 - 55 0,0
17.10.2017 16:00:00 25,3 14,1 28,8 16,4 17,0 15 8 31 17 SE 1016,1 - 60 0,0
17.10.2017 15:00:00 24,5 13,7 28,2 16,2 17,0 18 10 33 18 SSE 1016,9 - 60 0,0
17.10.2017 14:00:00 23,7 13,6 26,3 16,1 17,0 18 10 34 18 SE 1018,0 - 60 0,0
17.10.2017 13:00:00 22,3 13,9 25,7 16,0 17,0 15 8 31 17 SE 1019,0 - 60 0,2
17.10.2017 12:00:00 21,1 13,5 21,7 16,0 17,0 15 8 32 17 SE 1019,5 - 60 0,0
17.10.2017 11:00:00 16,9 13,2 16,2 16,1 17,0 9 5 14 8 NE 1020,4 - 60 0,0
17.10.2017 10:00:00 14,1 12,7 9,5 16,2 17,0 11 6 14 8 ENE 1020,9 - 60 0,0
17.10.2017 09:00:00 11,0 10,5 5,6 16,3 17,0 5 3 7 4 E 1020,9 7 6 0,0
17.10.2017 08:00:00 11,0 10,5 5,8 16,4 17,0 4 2 7 4 E 1020,9 6 0 0,0
17.10.2017 07:00:00 10,8 10,5 6,8 16,6 17,0 5 3 9 5 ENE 1021,1 6 0 0,0
17.10.2017 06:00:00 10,6 10,1 6,7 16,7 17,0 7 4 8 5 E 1021,6 3,4 0 0,0
17.10.2017 05:00:00 10,4 9,9 7,5 16,8 17,0 8 4 10 5 ENE 1021,9 0,8 0 0,0
17.10.2017 04:00:00 11,1 10,3 7,2 16,9 17,0 5 3 8 5 E 1022,5 1,3 0 0,0
17.10.2017 03:00:00 12,0 10,9 8,1 17,0 17,0 6 3 8 5 E 1023,1 0,6 0 0,2
17.10.2017 02:00:00 13,0 11,9 10,8 17,1 17,0 8 4 10 5 ENE 1023,4 12 0 0,0
17.10.2017 01:00:00 13,3 12,4 11,5 17,2 17,0 8 4 10 6 ENE 1023,5 10 0 0,0
17.10.2017 00:00:00 13,9 12,6 12,2 17,2 17,0 8 4 11 6 ENE 1023,7 11 0 0,0
16.10.2017 23:00:00 15,2 13,0 11,3 17,3 17,0 7 4 12 7 E 1023,4 16 0 0,0
16.10.2017 22:00:00 16,0 13,3 11,5 17,3 17,0 7 4 10 5 NE 1022,9 17 0 0,0
16.10.2017 21:00:00 18,1 14,6 11,5 17,2 17,0 5 3 7 4 ENE 1022,7 21 0 0,0
16.10.2017 20:00:00 19,9 13,8 12,7 17,2 17,0 4 2 8 5 ESE 1022,3 32 0 0,0
16.10.2017 19:00:00 23,8 14,8 16,9 17,0 17,0 4 2 13 7 SE 1022,0 23 39 0,0
16.10.2017 18:00:00 26,3 15,4 27,4 16,8 17,0 11 6 20 11 SE 1021,7 10 60 0,0
16.10.2017 17:00:00 27,0 15,4 31,3 16,6 17,0 9 5 19 10 SE 1021,9 10 60 0,0
16.10.2017 16:00:00 27,0 15,1 31,9 16,4 17,0 12 6 24 13 S 1022,1 32 60 0,0
16.10.2017 15:00:00 26,4 14,8 30,0 16,2 17,0 15 8 29 16 SE 1022,1 10 60 0,0
16.10.2017 14:00:00 25,4 14,2 27,8 16,0 17,0 16 9 32 17 SE 1022,6 10 60 0,0
16.10.2017 13:00:00 24,0 14,4 26,9 16,0 17,0 18 10 34 18 SSE 1022,8 10 60 0,0
16.10.2017 12:00:00 22,1 14,5 23,1 16,0 17,0 18 10 39 21 SSE 1023,0 24 60 0,0
16.10.2017 11:00:00 20,2 14,8 17,1 16,0 17,0 16 9 32 17 SE 1022,9 26 60 0,0
16.10.2017 10:00:00 15,4 14,3 11,4 16,1 16,9 5 3 8 4 ENE 1023,0 10 60 0,0
16.10.2017 09:00:00 12,2 11,7 9,0 16,2 17,0 5 3 10 5 ENE 1022,6 6 10 0,0
16.10.2017 08:00:00 11,8 11,3 7,9 16,3 17,0 8 4 8 4 ENE 1022,2 4,3 0 0,0
16.10.2017 07:00:00 11,7 11,2 6,6 16,5 17,0 8 4 11 6 ENE 1022,0 9 0 0,0
16.10.2017 06:00:00 11,5 10,9 8,0 16,6 17,0 6 4 10 5 ENE 1022,0 4,1 0 0,0
16.10.2017 05:00:00 11,1 9,7 7,1 16,7 17,0 5 3 9 5 E 1022,0 5 0 0,2
16.10.2017 04:00:00 12,2 11,1 7,7 16,8 17,0 5 3 12 7 ENE 1022,2 6 0 0,0
16.10.2017 03:00:00 12,7 11,4 8,2 16,9 17,0 10 6 13 7 E 1022,7 18 0 0,0
16.10.2017 02:00:00 13,7 12,4 11,2 16,9 17,0 9 5 12 6 E 1022,9 10 0 0,0

tt = Température de l'air
td = dewpoint
tt 5cm = Température de l'air 5cm
tt -20cm = Température de l'air -20cm
tt -100cm = Température de l'air -100cm
ff = Vitesse du vent
fx = gusts
dd = Direction du vent
ppp = reduced air pressure
vv = visibility
sd = Ensoleillement
rr = Quantités de précipitations

stations d'obs. à proximité